Regional Weather Roundup
Issued by NWS Cleveland, OH

Home | Current Version | Previous Version | Text Only | Print | Product List | Glossary Off
Versions: 1 2 3 4 5 6 7 8 9 10 11 12 13 14 15 16 17 18 19 20 21 22 23 24 25 26 27 28 29 30 31 32 33 34 35 36 37 38 39 40 41 42 43 44 45 46 47 48 49 50

000
ASUS41 KCLE 280300
RWRCLE
OHIO REGIONAL WEATHER ROUNDUP
NATIONAL WEATHER SERVICE WILMINGTON, OH
1100 PM EDT WED AUG 27 2014

NOTE: "FAIR" INDICATES FEW OR NO CLOUDS BELOW 12,000 FEET WITH NO
SIGNIFICANT WEATHER AND/OR OBSTRUCTIONS TO VISIBILITY.

OHZ001>008-015>018-024>027-034-035-043-044-280400-
   NORTHWEST OHIO

CITY           SKY/WX    TMP DP  RH WIND       PRES   REMARKS
DEFIANCE       MOCLDY    68  61  78 N3        30.11R
FINDLAY        MOCLDY    72  63  73 NE7       30.09R
TOLEDO EXPRESS CLOUDY    68  59  73 N3        30.10S
TOLEDO METCALF CLOUDY    71  60  68 N5        30.10S
LIMA           CLEAR     69  65  86 NE5       30.10R
$$

OHZ009>014-019>023-028>033-038-089-280400-
   NORTHEAST OHIO

CITY           SKY/WX    TMP DP  RH WIND       PRES   REMARKS
CLE-HOPKINS    CLOUDY    69  60  73 NE10      30.12R
CLE-LAKEFRONT  MOCLDY    69  60  73 NE14      30.09R
CUY CO. ARPT   MOCLDY    68  63  83 NE12      30.11S
LORAIN-ELYRIA  CLOUDY    69  60  73 NE6       30.11R
ASHTABULA      PTCLDY    63  56  78 N5        30.11R
AKRON-CANTON   MOCLDY    65  59  81 NE5       30.10S
WOOSTER        NOT AVBL
MANSFIELD      PTCLDY    65  62  90 NE3       30.11S
YOUNGSTOWN     CLOUDY    64  59  83 N5        30.10S
$$

OHZ042-051>053-060>062-070>072-077>081-280400-
  SOUTHWEST OHIO

CITY           SKY/WX    TMP DP  RH WIND       PRES   REMARKS
CINC-COVINGTON PTCLDY    79  71  76 N7        30.06R
CINC-LUNKEN    MOCLDY    79  71  76 NE5       30.05R
HAMILTON       PTCLDY    77  70  79 N5        30.07R
DAYTON         NOT AVBL
WRIGHT-PAT AFB CLEAR     75  69  82 N3        30.07S
DAYTON GENERAL CLEAR     76  67  73 N8        30.06S
WILMINGTON     CLEAR     73  68  84 N5        30.07R
$$

OHZ036-037-039>041-045>050-054>059-063>069-073>076-082>088-280400-
  CENTRAL AND SOUTHEAST OHIO

CITY           SKY/WX    TMP DP  RH WIND       PRES   REMARKS
COLUMBUS       PTCLDY    74  67  78 NE7       30.06R
OSU AIRPORT    CLEAR     71  64  78 NE7       30.08R
BOLTON FIELD   NOT AVBL
RICKENBACK AFB NOT AVBL
NEWARK         CLEAR     71  63  75 VRB7      30.07R
MARION         PTCLDY    66  62  87 NE5       30.10R
LANCASTER      CLEAR     72  68  87 NE6       30.07R
ZANESVILLE     PTCLDY    71  64  78 N8        30.07S
NEW PHILLY     PTCLDY    67  62  84 CALM      30.09R
$$



USA.gov is the U.S. government's official web portal to all federal, state and local government web resources and services.